| time (UTC) | temp F | wind direction | speed MPH | gust MPH | rain 1hr in | rain 24hr in | rain mn in | humidity % | barometer mb |
| 20260510152637 | 72 | 205 | 1.0 | 6.0 | 0.00 | 0.00 | 0.00 | 51 | 1014.9 |
| 20260510151126 | 72 | 170 | 2.0 | 8.0 | 0.00 | 0.00 | 0.00 | 51 | 1015.0 |
| 20260510141039 | 67 | 359 | 1.0 | 4.0 | 0.00 | 0.00 | 0.00 | 59 | 1015.0 |
| 20260510140030 | 66 | 342 | 3.0 | 4.0 | 0.00 | 0.00 | 0.00 | 61 | 1015.3 |
| 20260510134016 | 61 | 195 | 1.0 | 5.0 | 0.00 | 0.00 | 0.00 | 66 | 1015.5 |
| 20260510133510 | 60 | 341 | 5.0 | 6.0 | 0.00 | 0.00 | 0.00 | 67 | 1015.4 |
| 20260510120400 | 57 | 225 | 0.0 | 2.0 | 0.00 | 0.00 | 0.00 | 69 | 1014.9 |
| 20260510115856 | 57 | 267 | 1.0 | 2.0 | 0.00 | 0.00 | 0.00 | 69 | 1014.7 |
| 20260510114344 | 56 | 0 | 1.0 | 2.0 | 0.00 | 0.00 | 0.00 | 70 | 1014.8 |
| 20260510113840 | 56 | 22 | 0.0 | 1.0 | 0.00 | 0.00 | 0.00 | 70 | 1014.6 |
| 20260510112330 | 55 | 304 | 1.0 | 1.0 | 0.00 | 0.00 | 0.00 | 70 | 1014.4 |
| 20260510111825 | 55 | 358 | 0.0 | 1.0 | 0.00 | 0.00 | 0.00 | 70 | 1014.4 |
| 20260510110820 | 55 | 225 | 0.0 | 0.0 | 0.00 | 0.00 | 0.00 | 69 | 1014.4 |
| 20260510104801 | 55 | 135 | 0.0 | 0.0 | 0.00 | 0.00 | 0.00 | 70 | 1014.4 |
| 20260510100730 | 55 | 320 | 2.0 | 3.0 | 0.00 | 0.00 | 0.00 | 70 | 1014.3 |
| 20260510100226 | 55 | 139 | 0.0 | 0.0 | 0.00 | 0.00 | 0.00 | 70 | 1014.0 |
| 20260510095722 | 55 | 135 | 0.0 | 1.0 | 0.00 | 0.00 | 0.00 | 70 | 1013.9 |
| 20260510094714 | 55 | 303 | 1.0 | 2.0 | 0.00 | 0.00 | 0.00 | 70 | 1014.0 |
| 20260510091650 | 55 | 292 | 1.0 | 3.0 | 0.00 | 0.00 | 0.00 | 70 | 1013.9 |
| 20260510090642 | 55 | 174 | 1.0 | 1.0 | 0.00 | 0.00 | 0.00 | 69 | 1013.8 |
| 20260510085132 | 55 | 125 | 1.0 | 3.0 | 0.00 | 0.00 | 0.00 | 70 | 1014.1 |
| 20260510081604 | 56 | 135 | 1.0 | 1.0 | 0.00 | 0.00 | 0.00 | 69 | 1014.2 |
| 20260510081102 | 56 | 169 | 0.0 | 2.0 | 0.00 | 0.00 | 0.00 | 68 | 1014.2 |
| 20260510075548 | 56 | 90 | 0.0 | 1.0 | 0.00 | 0.00 | 0.00 | 68 | 1014.2 |
| 20260510073533 | 56 | 288 | 2.0 | 4.0 | 0.00 | 0.00 | 0.00 | 69 | 1014.2 |
| 20260510072524 | 56 | 315 | 3.0 | 4.0 | 0.00 | 0.00 | 0.00 | 68 | 1014.2 |
| 20260510065501 | 56 | 135 | 0.0 | 1.0 | 0.00 | 0.00 | 0.00 | 68 | 1013.7 |
| 20260510062941 | 56 | 135 | 0.0 | 1.0 | 0.00 | 0.00 | 0.00 | 68 | 1014.0 |
| 20260510061931 | 56 | 225 | 1.0 | 2.0 | 0.00 | 0.00 | 0.00 | 68 | 1014.0 |
| 20260510061429 | 56 | 341 | 2.0 | 3.0 | 0.00 | 0.00 | 0.00 | 68 | 1014.0 |
| 20260510060926 | 56 | 247 | 1.0 | 2.0 | 0.00 | 0.00 | 0.00 | 68 | 1014.0 |
| 20260510055414 | 56 | 135 | 0.0 | 0.0 | 0.00 | 0.00 | 0.00 | 68 | 1013.7 |
| 20260510054908 | 56 | 117 | 0.0 | 1.0 | 0.00 | 0.00 | 0.00 | 69 | 1013.6 |
| 20260510054404 | 56 | 135 | 0.0 | 2.0 | 0.00 | 0.00 | 0.00 | 68 | 1013.5 |
| 20260510051341 | 56 | 342 | 2.0 | 2.0 | 0.00 | 0.00 | 0.00 | 68 | 1013.8 |
| 20260510050334 | 56 | 0 | 1.0 | 1.0 | 0.00 | 0.00 | 0.00 | 68 | 1013.8 |
| 20260510045325 | 56 | 247 | 1.0 | 1.0 | 0.00 | 0.00 | 0.00 | 68 | 1013.7 |
| 20260510044318 | 56 | 90 | 0.0 | 1.0 | 0.00 | 0.00 | 0.00 | 68 | 1013.7 |
| 20260510041759 | 56 | 90 | 0.0 | 0.0 | 0.00 | 0.00 | 0.00 | 68 | 1013.6 |
| 20260510032215 | 56 | 90 | 0.0 | 1.0 | 0.00 | 0.00 | 0.00 | 67 | 1013.5 |
| 20260510031711 | 56 | 270 | 1.0 | 1.0 | 0.00 | 0.00 | 0.00 | 67 | 1013.5 |
| 20260510025656 | 56 | 22 | 0.0 | 1.0 | 0.00 | 0.00 | 0.00 | 67 | 1013.8 |
| 20260510025151 | 56 | 300 | 1.0 | 1.0 | 0.00 | 0.00 | 0.00 | 67 | 1013.8 |
| 20260510024647 | 56 | 90 | 0.0 | 1.0 | 0.00 | 0.00 | 0.00 | 67 | 1013.7 |
| 20260510022128 | 55 | 225 | 1.0 | 1.0 | 0.00 | 0.00 | 0.00 | 67 | 1013.7 |
| 20260510004009 | 57 | 232 | 1.0 | 1.0 | 0.00 | 0.00 | 0.00 | 66 | 1012.9 |
| 20260509201645 | 62 | 271 | 1.0 | 2.0 | 0.00 | 0.00 | 0.00 | 58 | 1013.3 |
| 20260509195126 | 62 | 243 | 0.0 | 1.0 | 0.00 | 0.00 | 0.00 | 58 | 1013.4 |
| 20260509191558 | 62 | 252 | 8.0 | 10.0 | 0.00 | 0.00 | 0.00 | 58 | 1013.8 |
| 20260509183527 | 63 | 73 | 1.0 | 1.0 | 0.00 | 0.00 | 0.00 | 57 | 1013.5 |
| 20260509175455 | 62 | 106 | 0.0 | 0.0 | 0.00 | 0.00 | 0.00 | 58 | 1013.1 |
| 20260509174951 | 63 | 90 | 0.0 | 1.0 | 0.00 | 0.00 | 0.00 | 58 | 1013.2 |
| 20260509173440 | 63 | 90 | 0.0 | 1.0 | 0.00 | 0.00 | 0.00 | 58 | 1013.3 |
| 20260509172936 | 63 | 100 | 1.0 | 2.0 | 0.00 | 0.00 | 0.00 | 58 | 1013.5 |
| 20260509170920 | 63 | 90 | 1.0 | 2.0 | 0.00 | 0.00 | 0.00 | 58 | 1013.4 |
| 20260509170416 | 63 | 92 | 1.0 | 3.0 | 0.00 | 0.00 | 0.00 | 59 | 1013.7 |
| 20260509155825 | 60 | 125 | 1.0 | 2.0 | 0.00 | 0.00 | 0.00 | 59 | 1014.4 |
| 20260509155321 | 60 | 247 | 1.0 | 2.0 | 0.00 | 0.00 | 0.00 | 59 | 1014.5 |
| 20260509153811 | 60 | 135 | 1.0 | 3.0 | 0.00 | 0.00 | 0.00 | 59 | 1014.5 |